Weather History for Vicksburg, MS

Change the Weather History Date:

Friday, October 24, 2014

  Actual Average Record
Temperature  
Mean Temperature 56 °F 63 °F  
Max Temperature 75 °F 76 °F 89 °F (2003)
Min Temperature 37 °F 50 °F 29 °F (1952)
Degree Days  
Heating Degree Days 9 5  
Month to date heating degree days 57 58  
Since 1 July heating degree days 57 63  
Cooling Degree Days 0 3  
Month to date cooling degree days 126 98  
Year to date cooling degree days 2170 2195  
Growing Degree Days 5 (Base 50)    
Moisture  
Dew Point 43 °F    
Average Humidity 67    
Maximum Humidity 100    
Minimum Humidity 33    
Precipitation  
Precipitation 0.00 in 0.17 in 2.57 in (1997)
Month to date precipitation 4.55 3.73  
Year to date precipitation 49.79 43.19  
Sea Level Pressure  
Sea Level Pressure 30.15 in    
Wind  
Wind Speed 3 mph (NNW)    
Max Wind Speed 12 mph    
Max Gust Speed 14 mph    
Visibility 6 miles    
Events Fog    
T = Trace of Precipitation, MM = Missing Value Source: NWS Daily Summary

Daily Weather History Graph

Daily Weather History Graph

Search for Another Location

Airport:

Trip Planner

Search our weather history database for the weather conditions in past years. The results will help you decide how hot, cold, wet, or windy it might be!

Date:

Astronomy

Oct. 24, 2014 Rise Set
Actual Time 7:14 AM CDT 6:21 PM CDT
Civil Twilight 6:49 AM CDT 6:46 PM CDT
Nautical Twilight 6:20 AM CDT 7:15 PM CDT
Astronomical Twilight 5:52 AM CDT 7:43 PM CDT
Moon 7:52 AM CDT (10/24) 7:04 PM CDT (10/24)
Length of Visible Light 11h 56m
Length of Day
11h 06m
New Moon, 1% of the Moon is Illuminated
Oct 24
New Moon
Oct 30
First Quarter
Nov 6
Full
Nov 14
Last Quarter
Nov 22
New

Hourly Weather History & Observations

Time (CDT) Temp. Windchill Dew Point Humidity Pressure Visibility Wind Dir Wind Speed Gust Speed Precip Events Conditions
12:53 AM 46.0 °F 44.8 °F 44.1 °F 93% 30.14 in 10.0 mi North 3.5 mph - N/A   Clear
1:53 AM 45.0 °F 43.5 °F 44.1 °F 97% 30.14 in 9.0 mi NNW 3.5 mph - N/A   Clear
2:53 AM 46.0 °F 43.9 °F 45.0 °F 96% 30.15 in 8.0 mi NW 4.6 mph - N/A   Clear
3:53 AM 46.9 °F - 45.0 °F 93% 30.15 in 8.0 mi WNW 3.5 mph - N/A   Clear
4:14 AM 43.0 °F - 42.1 °F 97% 30.13 in 1.8 mi Calm Calm - N/A   Clear
4:24 AM 43.0 °F - 39.9 °F 89% 30.13 in 0.5 mi Calm Calm - N/A Fog Fog
4:40 AM 43.0 °F - 42.1 °F 97% 30.14 in 0.5 mi Calm Calm - N/A Fog Fog
4:53 AM 42.1 °F 40.2 °F 41.0 °F 96% 30.16 in 1.5 mi NW 3.5 mph - N/A   Clear
4:56 AM 42.1 °F 40.2 °F 41.0 °F 96% 30.14 in 3.0 mi NW 3.5 mph - N/A   Clear
5:14 AM 39.9 °F - 39.0 °F 97% 30.14 in 2.0 mi Calm Calm - N/A   Clear
5:36 AM 43.0 °F 41.3 °F 41.0 °F 93% 30.14 in 0.8 mi NW 3.5 mph - N/A   Clear
5:53 AM 39.9 °F - 37.9 °F 93% 30.16 in 1.2 mi Calm Calm - N/A   Clear
6:01 AM 39.0 °F 36.8 °F 37.0 °F 93% 30.14 in 2.5 mi NW 3.5 mph - N/A   Clear
6:12 AM 39.9 °F - 39.0 °F 97% 30.14 in 1.0 mi Calm Calm - N/A   Clear
6:23 AM 39.0 °F - 37.9 °F 96% 30.14 in 3.0 mi Calm Calm - N/A   Clear
6:48 AM 39.2 °F - 39.2 °F 100% 30.14 in 1.8 mi Calm Calm - N/A   Clear
6:53 AM 39.0 °F 36.8 °F 37.9 °F 96% 30.17 in 1.0 mi NW 3.5 mph - N/A   Clear
7:15 AM 37.9 °F - 36.0 °F 93% 30.14 in 0.8 mi Calm Calm - N/A   Clear
7:20 AM 37.9 °F - 36.0 °F 93% 30.15 in 2.0 mi Calm Calm - N/A   Clear
7:37 AM 39.0 °F - 37.0 °F 93% 30.16 in 1.0 mi Calm Calm - N/A   Clear
7:50 AM 41.0 °F - 39.2 °F 93% 30.16 in 0.5 mi Calm Calm - N/A Fog Fog
7:53 AM 42.1 °F - 39.9 °F 92% 30.18 in 0.8 mi Calm Calm - N/A   Mist
7:57 AM 43.0 °F - 41.0 °F 93% 30.16 in 2.0 mi Calm Calm - N/A   Mostly Cloudy
8:05 AM 44.1 °F - 43.0 °F 96% 30.16 in 1.0 mi Calm Calm - N/A   Mist
8:14 AM 46.0 °F - 45.0 °F 96% 30.16 in 2.5 mi Calm Calm - N/A   Partly Cloudy
8:21 AM 46.9 °F - 46.0 °F 97% 30.16 in 7.0 mi WNW 3.5 mph - N/A   Partly Cloudy
8:53 AM 54.0 °F - 50.0 °F 86% 30.19 in 10.0 mi Variable 3.5 mph - N/A   Clear
9:53 AM 60.1 °F - 50.0 °F 69% 30.19 in 10.0 mi North 3.5 mph - N/A   Clear
10:53 AM 63.0 °F - 48.9 °F 60% 30.21 in 10.0 mi North 8.1 mph - N/A   Clear
11:53 AM 68.0 °F - 46.9 °F 47% 30.19 in 10.0 mi NNE 8.1 mph - N/A   Clear
12:53 PM 71.1 °F - 44.1 °F 38% 30.16 in 10.0 mi Variable 5.8 mph - N/A   Clear
1:53 PM 72.0 °F - 42.1 °F 34% 30.13 in 10.0 mi Variable 4.6 mph - N/A   Clear
2:53 PM 73.9 °F - 43.0 °F 33% 30.12 in 10.0 mi North 4.6 mph - N/A   Clear
3:53 PM 73.9 °F - 43.0 °F 33% 30.12 in 10.0 mi NNE 5.8 mph - N/A   Clear
4:53 PM 73.0 °F - 44.1 °F 35% 30.12 in 10.0 mi Variable 4.6 mph - N/A   Clear
5:53 PM 63.0 °F - 53.1 °F 70% 30.12 in 10.0 mi NW 3.5 mph - N/A   Clear
6:53 PM 55.0 °F - 50.0 °F 83% 30.12 in 10.0 mi North 4.6 mph - N/A   Clear
7:53 PM 52.0 °F - 48.0 °F 86% 30.14 in 10.0 mi Calm Calm - N/A   Clear
8:53 PM 48.0 °F - 46.0 °F 93% 30.14 in 10.0 mi Calm Calm - N/A   Clear
9:53 PM 48.0 °F - 46.0 °F 93% 30.15 in 10.0 mi Calm Calm - N/A   Clear
10:53 PM 46.9 °F - 45.0 °F 93% 30.16 in 9.0 mi Calm Calm - N/A   Clear
11:53 PM 46.9 °F - 45.0 °F 93% 30.16 in 10.0 mi Calm Calm - N/A   Clear